{"data":{"norad_id":57213,"intl_designator":"2023-093A","name":"H2SAT (HEINRICH HERTZ)","alt_names":[],"object_type":"PAYLOAD","status":"ACTIVE","operator":null,"country":"GER","launch_date":"2023-07-05","launch_site_code":"FRGUI","launch_vehicle":null,"mission":null,"orbit_class":"UNKNOWN","rcs_meters":null,"size_class":null,"mass_kg":null,"dimensions":null,"purposes":["comms"],"wikipedia_slug":null,"has_3d_model":false,"image_url":null,"decayed_at":null,"tle_current":{"epoch":"2026-05-25T03:44:47.244768Z","epoch_age_seconds":61890,"freshness":"FRESH","line1":"1 57213U 23093A   26145.15610237  .00000000  00000+0  00000+0 0  9996","line2":"2 57213   0.0144 254.3907 0000654 181.7219 223.5176  1.00272263 10687","mean_motion":1.00272263,"eccentricity":6.54e-5,"inclination_deg":0.0144,"raan_deg":254.3907,"arg_perigee_deg":181.7219,"mean_anomaly_deg":223.5176,"bstar":0,"rev_number":1068,"period_min":1436.090058125,"perigee_km":35783.703396264,"apogee_km":35789.218525678,"semimajor_km":42164.597960971,"source":"CELESTRAK","updated_at":"2026-05-25T13:38:14.141813Z"}}}